Kuchera_Ratio
0.0 0.0 0.0 0.0 0.0 0.0 0.0 0.0 0.0 0.0 0.0 0.0 0.0 0.0 0.0 0.0 0.0 0.0 0.0 0.0 0.0 0.0 0.0 0.0 0.0 0.0 0.0 0.0 0.0 0.0 0.0 0.0 0.0 0.0 0.0 0.0 0.0 0.0 0.0 0.0 0.0 0.0 0.0 0.0
0.0 0.0 0.0 0.0 0.0 0.0 0.0 0.0 0.0 0.0 0.0 0.0 0.0 0.0 0.0 0.0 0.0 0.0 0.0 0.0 0.0 0.0 0.0 0.0 0.0 0.0 0.0 0.0 0.0 0.0 0.0 0.0 0.0 0.0 0.0 0.0 0.0 0.0 0.0 0.0 0.0 0.0 0.0 0.0
0.0 0.0 0.0 0.0 0.0 0.0 0.0 0.0 0.0 0.0 0.0 0.0 0.0 0.0 1.9 0.8 0.0 0.0 0.0 0.0 0.0 0.0 0.0 0.0 0.0 0.0 0.0 0.0 0.0 0.0 0.0 0.0 0.0 0.0 0.0 0.0 0.0 0.0 0.0 0.0 0.0 0.0 0.0 0.0
0.0 0.0 0.0 0.0 0.0 0.0 0.0 0.0 0.0 0.0 0.0 0.0 0.0 0.0 2.8 3.7 3.8 4.1 2.5 1.8 1.2 0.2 0.1 0.1 0.0 0.0 0.0 0.0 0.0 0.0 0.0 0.0 0.0 0.0 0.0 0.0 0.0 0.0 0.0 0.0 0.0 0.0 0.0 0.0
0.0 0.0 0.0 0.0 0.0 0.0 0.0 0.0 0.0 0.0 0.0 0.0 0.0 0.0 8.2 1.5 6.2 5.0 4.1 4.3 3.8 3.6 3.4 2.7 2.3 1.6 0.8 0.0 0.0 0.0 0.0 0.0 0.0 0.0 0.0 0.0 0.0 0.0 0.0 0.0 0.0 0.0 0.0 0.0
0.0 0.0 0.0 0.0 0.0 0.0 0.0 0.0 0.0 0.0 0.0 0.5 0.0 0.0 5.9 7.2 6.8 6.8 7.2 7.4 7.4 7.5 6.5 5.3 4.3 3.2 2.5 1.7 2.1 2.2 2.1 1.9 2.5 2.5 3.0 2.9 1.4 1.4 0.0 0.0 0.0 0.0 0.0 0.0
0.0 0.0 0.0 0.0 0.0 0.0 0.0 0.0 0.0 2.4 4.5 0.7 0.0 0.0 8.4 9.8 9.3 9.1 9.0 9.7 9.9 9.9 9.9 9.5 9.0 8.8 8.8 8.8 7.9 7.2 6.3 5.6 5.6 6.1 6.3 5.8 4.9 4.5 3.6 2.4 0.0 0.0 0.0 0.0
0.0 1.2 0.0 0.0 0.0 0.0 0.0 0.0 0.0 7.4 5.2 0.0 0.0 0.1 10.2 11.3 11.8 11.3 12.3 12.2 12.0 11.6 11.3 10.9 10.4 10.8 11.0 10.6 10.6 10.8 10.8 10.5 10.5 10.2 9.3 7.4 6.1 5.4 5.0 4.2 4.0 2.7 0.0 0.0
0.0 0.0 0.0 0.0 0.0 0.0 0.0 0.0 0.0 0.0 0.0 1.1 0.0 13.2 12.9 12.6 12.8 13.1 13.3 13.2 13.5 13.5 13.3 13.2 12.5 12.3 12.2 12.2 12.0 11.7 11.7 12.4 12.7 12.0 12.1 11.1 10.4 8.2 6.8 6.4 5.8 5.0 4.6 1.8
0.1 1.2 0.0 0.0 0.0 0.0 0.0 0.0 0.0 0.0 8.5 8.9 1.0 7.3 13.3 14.0 14.2 14.3 14.5 15.1 14.7 14.0 13.8 13.6 13.2 13.1 12.5 12.3 12.0 11.8 11.3 12.2 11.4 12.4 12.6 12.5 12.3 11.1 9.9 9.0 8.4 7.6 6.9 6.1
0.0 1.6 0.9 0.0 3.2 4.0 0.0 0.0 0.0 0.0 2.5 5.6 5.9 10.7 13.9 15.7 16.1 16.5 16.0 15.8 15.8 15.1 14.8 14.4 13.8 13.2 13.0 12.7 12.8 12.8 12.8 12.9 12.9 12.3 12.1 12.7 13.2 12.9 12.9 12.4 11.2 10.2 10.0 9.8
3.0 5.4 7.0 11.2 4.5 1.5 4.9 8.3 5.9 5.2 8.2 8.9 9.9 13.9 16.0 16.0 16.2 15.9 16.9 16.3 15.7 15.3 15.5 15.2 14.9 14.6 14.6 14.7 14.6 14.7 14.3 14.3 13.8 13.2 13.0 13.0 12.7 13.0 13.7 14.0 13.9 13.7 13.5 12.8
3.8 8.8 12.6 12.2 8.1 4.5 11.9 12.9 11.7 9.8 11.5 13.5 12.5 15.0 17.6 17.2 17.5 17.3 17.5 16.9 17.3 17.3 17.5 17.3 17.2 17.6 17.8 17.5 17.2 17.0 16.4 16.3 15.4 14.8 14.5 14.5 14.4 14.3 14.4 14.4 14.2 13.9 14.0 13.6
0.9 10.8 13.3 12.8 13.7 10.8 14.4 15.3 14.4 13.8 15.3 13.9 13.2 18.3 19.6 20.6 20.0 18.8 18.4 18.6 19.3 19.7 19.8 19.4 19.5 19.6 19.7 19.4 19.3 19.0 18.5 17.8 17.1 16.8 16.4 16.5 16.1 15.8 15.4 14.8 15.0 15.3 15.0 14.9
6.7 15.1 14.2 13.4 12.1 12.8 16.8 17.4 17.7 16.5 18.6 17.1 20.4 20.2 21.1 21.6 22.3 21.6 20.7 20.2 20.4 21.1 21.0 21.1 21.2 20.8 20.6 20.7 20.2 19.8 19.3 18.9 18.2 18.5 18.1 17.4 16.6 16.1 16.3 16.1 15.8 15.5 15.3 15.5
8.4 15.6 13.9 16.9 14.4 14.7 19.1 20.4 18.6 19.4 21.2 21.5 21.8 22.3 21.7 22.1 21.2 20.4 20.8 21.8 22.2 22.2 22.0 21.8 21.6 21.5 21.7 21.5 20.9 20.3 20.2 19.9 18.8 19.3 19.3 17.7 17.6 17.6 17.3 16.8 16.6 16.3 16.3 16.0
12.5 14.4 16.6 18.6 15.8 16.5 19.9 22.7 21.1 20.7 21.8 22.1 19.9 22.4 22.0 22.0 22.0 22.2 22.8 23.3 23.2 22.8 22.7 22.6 22.3 22.3 22.1 21.7 21.0 21.5 21.0 20.0 20.0 20.0 19.3 18.6 18.6 18.8 18.0 17.4 17.1 17.0 17.1 16.4
12.9 14.4 15.9 18.8 16.7 22.0 23.7 20.9 21.6 22.2 23.2 23.6 23.7 23.8 24.1 24.3 23.8 23.2 23.0 23.0 23.8 23.7 23.3 23.1 22.8 22.9 22.1 21.6 22.2 21.7 21.5 21.1 20.8 20.7 20.0 19.3 19.4 19.3 18.5 18.2 18.0 17.6 16.6 16.7
10.5 13.6 19.6 19.2 18.8 23.2 23.4 23.8 24.3 24.4 24.3 24.3 24.8 24.9 23.9 24.3 23.2 22.6 23.1 24.5 23.1 23.5 23.5 23.3 22.7 22.4 22.3 22.9 22.3 22.3 22.0 21.2 21.5 21.1 20.1 19.6 19.2 19.3 18.9 19.1 18.9 17.7 17.1 16.7
12.6 12.8 15.1 19.5 21.1 22.0 24.0 23.9 23.2 23.7 23.5 25.0 26.1 25.5 25.9 25.9 23.5 20.1 23.1 22.7 23.4 23.1 22.8 22.9 22.0 21.5 22.1 21.8 21.1 21.6 21.7 21.2 21.3 20.3 19.9 18.9 18.7 19.0 19.4 19.0 18.5 17.5 17.2 17.0
17.8 19.0 19.4 18.6 20.0 24.4 23.9 24.0 23.7 25.0 24.5 25.4 25.0 25.1 26.6 25.9 23.7 23.2 23.3 23.8 22.8 22.5 22.3 21.3 21.8 22.6 21.7 20.6 20.5 21.7 21.2 21.2 19.9 19.4 19.4 19.3 19.0 19.3 18.9 18.6 17.9 17.9 17.8 17.3
22.1 21.5 20.4 23.0 22.9 24.2 24.0 24.1 25.0 25.5 26.2 25.6 25.4 25.6 26.6 25.6 25.4 25.3 24.4 23.9 23.3 23.2 22.6 21.8 22.2 21.9 20.8 20.1 20.9 21.9 21.8 20.1 20.0 20.1 20.4 20.3 20.0 19.7 19.3 19.5 19.1 18.5 18.3 19.0
22.5 24.8 22.5 24.1 23.7 23.2 24.2 24.1 26.3 25.6 26.7 25.0 27.1 26.0 26.6 27.4 26.3 25.1 24.8 24.1 23.4 22.8 22.5 21.7 22.2 22.3 21.0 20.7 20.9 22.2 21.4 20.8 20.9 21.3 21.5 21.3 20.7 20.5 20.0 20.3 20.0 20.3 19.7 20.2
25.3 25.6 24.2 25.3 25.2 24.4 26.2 26.6 27.1 27.6 27.5 26.8 26.6 27.5 27.2 27.7 26.3 25.5 24.0 23.9 23.6 23.0 23.0 22.3 22.7 22.7 22.5 21.1 21.2 21.5 21.3 21.1 21.8 22.6 22.4 22.0 22.2 21.6 20.6 20.8 20.4 20.9 21.2 21.3
24.3 24.9 25.7 25.7 26.2 26.7 27.1 27.1 26.8 28.3 28.8 29.3 26.6 26.5 26.3 25.3 24.9 24.6 24.7 24.2 23.7 23.4 22.8 22.6 22.7 23.0 22.9 21.9 22.0 21.5 21.5 21.6 22.9 23.0 23.1 23.0 22.3 22.4 22.2 21.5 21.5 21.6 20.6 20.0
24.1 25.8 24.4 23.1 26.7 26.5 25.3 26.9 28.6 28.8 28.1 26.7 26.1 25.5 24.0 24.1 25.1 24.4 24.9 24.0 23.8 23.9 22.4 23.0 23.0 23.1 22.9 22.6 22.6 22.0 21.5 22.0 23.4 24.1 23.5 23.3 23.1 23.2 22.4 22.5 22.6 19.6 19.0 18.2